Tracking 18816 objects as of 19-October-2017
HD Live streaming from Space Station
objects crossing your sky now

PACE

Track PACE now!
10-day predictions
PACE is classified as:


NORAD ID: 40023
Int'l Code: 2014-033P
Perigee: 600.4 km
Apogee: 616.4 km
Inclination: 97.9 °
Period: 96.7 minutes
Semi major axis: 6979 km
RCS: Unknown
Launch date: June 19, 2014
Source: (TBD)
Launch site: Orenburg, Russia (OREN)
Uplink (MHz):
Downlink (MHz): 437.485
Beacon (MHz): 437.485
Mode: 1200bps AFSK CW
Call sign:
Status: Inactive

aabbcc
Your satellite tracking list
Your tracking list is empty





NASA's NSSDC Master Catalog

Two Line Element Set (TLE):
1 40023U 14033P   17291.72774964  .00001284  00000-0  14262-3 0  9999
2 40023  97.9156 203.9537 0011497 266.0359  93.9559 14.88930813180880
Source of the keplerian elements: Caltech